Showing default

GLOBAL-34, 68098

Orbit data source: Space-Track

GLOBAL-34, 68098 is a payload satellite owned by BlackSky Global (US) in LEO that was launched on Thu, 05 Mar 2026 UTC via an ELECTRON launch vehicle from the Rocket Lab Launch Complex (RLLC). Payload-class satellites include a variety of spacecraft equipped with specific instruments for various scientific and technological missions. These include communications satellites like Starlink; space stations such as the ISS; scientific satellites like the Hubble; Earth observation satellites from companies like Planet Labs, Umbra, and HawkEye 360; GPS; miniature CubeSats for education and research; and military/defense satellites.

Loading next visibility...
Identifier
68098, 2026-043A
Orbit
LEO
Country
Flag of USUS
Related business
Manufacturer
LeoStella
Mission
Operational spacecraft
Bus & Motor
BSKY, Unknown motor
Mass
138 kg wet, 134 kg dry
Launch date (UTC)
2026-03-05 (4 months ago)
Launch vehicle
ELECTRON
Launch site
Rocket Lab Launch Complex (RLLC)
Object type
Payload
Rocket body
Debris
Shape & HBR
Unknown shape, 1.0 m
Radar Cross Section
Large (>1 m²)

Expand to show TLE details & history
Last TLE update: 17 hours ago

TLE from 17 hours ago
0 GLOBAL-34
1 68098U 26043A   26171.15435748  .00007154  00000-0  22956-3 0  9994
2 68098  42.0194 203.6175 0004688 293.0287  67.0056 15.32669912 16289
Epoch: 2026-06-20T03:42Z
TLE epoch observation values (Epoch: 2026-06-20T03:42:16.486Z)
Latitude
-0.00002°
Longitude
-120.32427°
Altitude
466.264 km
Speed
7.636 km/s
True Right ascension
13h 34m 28s
True Declination
0° 00' 00"
Sunlit
Object was in full shadow at epoch
Visualization orbit readout
Latitude
Unknown
Longitude
Unknown
Altitude
Unknown
Speed
Unknown
Apparent Right ascension
Unknown
Apparent Declination
Unknown
Sunlit
N/A
Visualization observer readout
Local Sidereal Time
07:19:43
Azimuth
Unknown
Elevation
Unknown
Doppler factor
Unknown
Orbital elements
Apogee altitude
473.175 km
Perigee altitude
466.754 km
Semi-major axis
6,848.101 km
Eccentricity
0.00047
Inclination
42.0194°
RAAN
203.6175°
Arg. of periapsis
293.0287°
True anomaly
67.05506°
Mean anomaly
67.0056°
Eccentric anomaly
67.03033°
Mean motion
3.8299 °/min
Orbital period
94 mins
BSTAR
0.00022956
Loading maneuver chart data...
Computing Atmospheric mass density...
Loading historical data...
Loading historical data...
Loading historical data...
Loading historical data...
Loading historical data...
Loading historical data...
Loading historical data...
Other satellites on launch #43 in the year 2026 (2026-03-05 UTC)

Documentation

Showing up to 5 results
|